Regional Weather Roundup
Issued by NWS

Home | Current Version | Previous Version | Text Only | Print | Product List | Glossary Off
Versions: 1 2 3 4 5 6 7 8 9 10 11 12 13 14 15 16 17 18 19 20 21 22 23 24 25 26 27 28 29 30 31 32 33 34 35 36 37 38 39 40 41 42 43 44 45 46 47 48 49 50

000
ASUS43 KMKX 182211
RWRWI

WISCONSIN REGIONAL WEATHER ROUNDUP
NATIONAL WEATHER SERVICE MILWAUKEE/SULLIVAN WI
500 PM CDT FRI APR 18 2014

NOTE: "FAIR" INDICATES FEW OR NO CLOUDS BELOW 12,000 FEET WITH NO
SIGNIFICANT WEATHER AND/OR OBSTRUCTIONS TO VISIBILITY.

WIZ001-002-006>008-014>016-023>028-182300-
NORTHWEST WISCONSIN

CITY           SKY/WX    TMP DP  RH WIND       PRES   REMARKS
SUPERIOR ARPT  SUNNY     36  23  59 NE9       30.37F WCI  29
ASHLAND        SUNNY     37  24  59 NE10      30.39S WCI  30
HAYWARD        SUNNY     44  18  35 E7        30.33F
SIREN          CLOUDY    46  19  33 E6        30.32F
RICE LAKE      MOSUNNY   48  20  32 SE7       30.33F
LADYSMITH      PTSUNNY   47  20  33 SE7       30.35S
EAU CLAIRE     SUNNY     51  21  30 VRB5      30.32S
MENOMONIE      CLEAR     50  20  31 SE3       30.32F
NEW RICHMOND   MOSUNNY   49  26  41 E12       30.30F
OSCEOLA        MOSUNNY   45  27  49 NE9G16    30.32F
$$

WIZ003>005-009-010-017-018-182300-
NORTH CENTRAL WISCONSIN

CITY           SKY/WX    TMP DP  RH WIND       PRES   REMARKS
WOODRUFF       SUNNY     52  22  32 CALM      30.34S
RHINELANDER    SUNNY     42  13  30 VRB5      30.34F
EAGLE RIVER    SUNNY     40  19  43 N6        30.33F
LAND O LAKES   SUNNY     39  22  51 NE3       30.35S
PHILLIPS       SUNNY     42  18  37 CALM      30.33S
TOMAHAWK       SUNNY     44  13  28 CALM      30.33S
MEDFORD        SUNNY     45  20  37 NE6       30.33S
MERRILL        SUNNY     46  21  36 CALM      30.34S
$$

WIZ029-030-035-036-043>047-182300-
CENTRAL WISCONSIN

CITY           SKY/WX    TMP DP  RH WIND       PRES   REMARKS
WAUSAU         SUNNY     49  19  30 N7        30.32F
MOSINEE        SUNNY     46  21  36 N9        30.34F
MARSHFIELD     SUNNY     50  23  34 CALM      30.32F
STEVENS POINT  SUNNY     48  20  33 E5        30.33F
WAUPACA        SUNNY     54  16  22 NE7       30.34F
WAUTOMA        SUNNY     54  23  30 N8        30.33F
WISC RAPIDS    SUNNY     52  21  29 MISG      30.34F
CAMP DOUGLAS   SUNNY     56  24  29 NW3       30.31F HAZE
$$

WIZ011>013-019>022-031-037>040-048>050-182300-
NORTHEAST WISCONSIN

CITY           SKY/WX    TMP DP  RH WIND       PRES   REMARKS
ANTIGO         SUNNY     43  19  38 N7        30.33F
STURGEON BAY   SUNNY     43  25  49 NE7       30.38S
GREEN BAY      SUNNY     48  31  51 NE8       30.36S
MANITOWOC      SUNNY     39  29  67 SE12      30.39R WCI  32
APPLETON       MOSUNNY   50  21  32 N6        30.34F
CLINTONVILLE   SUNNY     52  21  30 N6        30.33F
OSHKOSH        SUNNY     48  26  42 E8        30.35F
$$

WIZ032>034-041-042-053>061-182300-
SOUTHWEST WISCONSIN

CITY           SKY/WX    TMP DP  RH WIND       PRES   REMARKS
LA CROSSE      SUNNY     54  25  32 W6        30.30F
SPARTA         SUNNY     56  22  27 E7        30.31F
VIROQUA        FAIR      53  27  35 N3        30.30F
BOSCOBEL       SUNNY     59  24  26 N6        30.30F
PRAIRIE DU CHI SUNNY     58  26  28 E6        30.28F
PLATTEVILLE    FAIR      57  29  34 CALM      30.30F
$$

WIZ056-057-062-063-064-067-068-182300-
SOUTH CENTRAL WISCONSIN

CITY           SKY/WX    TMP DP  RH WIND       PRES   REMARKS
BARABOO/DELLS  SUNNY     54  23  29 CALM      30.31F
LONE ROCK      SUNNY     56  29  35 VRB6      30.30F
WATERTOWN      SUNNY     51  31  45 CALM      30.32F
MADISON        MOSUNNY   55  27  34 E7        30.32F
MIDDLETON      FAIR      56  25  30 NE3       30.31F
MONROE         SUNNY     57  30  35 E5        30.30S HAZE
JANESVILLE     SUNNY     57  27  30 NE5       30.31S
$$

WIZ051-052-058>065-066-070>072-182300-
SOUTHEAST WISCONSIN

CITY           SKY/WX    TMP DP  RH WIND       PRES   REMARKS
MILWAUKEE      MOSUNNY   40  30  67 NE17      30.38R WCI  31
WAUKESHA       SUNNY     45  32  61 NE12      30.35R
MILWAUKEE/TIMM SUNNY     43  28  56 E9        30.37R
RACINE         SUNNY     41  30  65 NE13      30.38R
BURLINGTON     SUNNY     49  35  57 E13       30.34R
KENOSHA        SUNNY     43  32  65 E12       30.36R
FOND DU LAC    SUNNY     48  26  42 E10       30.35F
SHEBOYGAN      SUNNY     40  28  62 E10       30.38R WCI  33
WEST BEND      SUNNY     43  32  65 NE10      30.35S
JUNEAU         SUNNY     50  25  36 NE9       30.34F
$$

LSZ147-162-182300-
LAKE SUPERIOR

STATION/POSITION TIME  TEMP    WIND        PRES    WAVE
                       AIR SEA DIR/SP/G            HT/PER
                 (UTC) (F)     (DEG/KT/KT) (MB)    (FT/S)
DEVILS ISLAND    2200   33      CALM  /  1 1030.6F
PORT WING        2100   35      30/ 13/ 17 1028.8
SAXON HARBOR     2140           40/  8/ 10 1029.5F
$$

LMZ867-665-643>646-182300-
LAKE MICHIGAN

STATION/POSITION TIME  TEMP    WIND        PRES    WAVE
                       AIR SEA DIR/SP/G            HT/PER
                 (UTC) (F)     (DEG/KT/KT) (MB)    (FT/S)
NORTHPORT PIER   2100   40     310/  5/  7 1028.4S
SISTER BAY       2123   49        CALM       N/A
KEWAUNEE LAKESHO 2100   37     120/  6/  7 1029.4R
SHEBOYGAN LAKESH 2200   36      60/  8/  9 1029.8R
PORT WASHINGTON  2100   38      70/  6/ 10 1029.1S
MILWAUKEE LAKESH 2100   36      40/ 11/ 13   N/A
KENOSHA   LAKESH 2100   36      50/ 13/ 15   N/A
$$

TC  - TEMPERATURE IN CELSIUS
VSB - VISIBILITY IN STATUTE MILES
WCI - WIND CHILL INDEX
HX  - HEAT INDEX




USA.gov is the U.S. government's official web portal to all federal, state and local government web resources and services.